DW9558 Weather Reports


Display with metric or nautical units.
time (UTC)temp
F
wind
direction
speed
MPH
gust
MPH
rain 1hr
in
rain 24hr
in
rain mn
in
humidity
%
barometer
mb
20260507003006 75 51 1.0 4.0 0.00 0.00 0.00 54 1022.7
20260507001505 76 51 2.0 4.0 0.00 0.00 0.00 53 1022.7
20260507000004 75 51 1.0 6.0 0.00 0.00 0.00 54 1022.7
20260506234503 75 51 0.0 6.0 0.00 0.00 0.00 56 1022.8
20260506233002 75 56 3.0 7.0 0.00 0.00 0.00 55 1023.0
20260506231559 75 57 2.0 7.0 0.00 0.00 0.00 54 1023.1
20260506230058 75 57 4.0 9.0 0.00 0.00 0.00 54 1023.3
20260506224611 74 71 2.0 6.0 0.00 0.00 0.00 57 1023.6
20260506223058 73 74 1.0 5.0 0.00 0.00 0.00 56 1023.8
20260506221551 73 80 2.0 9.0 0.00 0.00 0.00 56 1024.0
20260506220104 74 80 1.0 6.0 0.00 0.00 0.00 56 1024.2
20260506214550 73 81 1.0 6.0 0.00 0.00 0.00 55 1024.4
20260506213049 74 85 2.0 6.0 0.00 0.00 0.00 54 1024.6
20260506211553 74 86 1.0 6.0 0.00 0.00 0.00 54 1024.7
20260506210043 72 86 1.0 9.0 0.00 0.00 0.00 56 1025.0
20260506204543 72 88 1.0 7.0 0.00 0.00 0.00 56 1025.1
20260506203041 72 88 0.0 8.0 0.00 0.00 0.00 55 1025.4
20260506201540 71 94 2.0 7.0 0.00 0.00 0.00 55 1025.5
20260506200037 71 94 2.0 7.0 0.00 0.00 0.00 56 1025.6
20260506194538 71 104 2.0 8.0 0.00 0.00 0.00 57 1025.7
20260506193034 71 123 2.0 6.0 0.00 0.00 0.00 56 1025.8
20260506191532 70 123 2.0 6.0 0.00 0.00 0.00 59 1026.3
20260506190030 70 123 0.0 4.0 0.00 0.00 0.00 59 1026.3
20260506184530 70 123 1.0 4.0 0.00 0.00 0.00 61 1026.3
20260506183026 69 123 0.0 4.0 0.00 0.00 0.00 63 1026.5
20260506181521 68 123 0.0 3.0 0.00 0.00 0.00 65 1026.4
20260506180018 66 123 0.0 2.0 0.00 0.00 0.00 67 1026.6
20260506174514 65 123 0.0 3.0 0.00 0.00 0.00 68 1026.6
20260506173012 65 123 0.0 0.0 0.00 0.00 0.00 70 1026.6
20260506171507 64 123 0.0 0.0 0.00 0.00 0.00 72 1026.6
20260506170004 63 123 0.0 0.0 0.00 0.00 0.00 74 1026.6
20260506164501 62 123 0.0 0.0 0.00 0.00 0.00 75 1026.7
20260506163056 61 123 0.0 0.0 0.00 0.00 0.00 76 1026.6
20260506161553 61 123 0.0 0.0 0.00 0.00 0.00 77 1026.5
20260506160059 60 123 0.0 0.0 0.00 0.00 0.00 78 1026.6
20260506154547 59 123 0.0 2.0 0.00 0.00 0.00 78 1026.6
20260506153040 59 123 0.0 4.0 0.00 0.00 0.00 79 1026.5
20260506151543 58 123 0.0 2.0 0.00 0.00 0.00 80 1026.5
20260506150036 58 123 0.0 0.0 0.00 0.00 0.00 81 1026.4
20260506144532 58 123 0.0 2.0 0.00 0.00 0.00 81 1026.4
20260506143034 57 123 0.0 0.0 0.00 0.00 0.00 82 1026.3
20260506141527 57 123 0.0 0.0 0.00 0.00 0.00 82 1026.2
20260506140024 57 123 0.0 2.0 0.00 0.00 0.00 82 1026.0
20260506134524 57 123 0.0 2.0 0.00 0.00 0.00 82 1025.9
20260506133020 57 123 0.0 4.0 0.00 0.00 0.00 82 1025.8
20260506131536 57 123 0.0 1.0 0.00 0.00 0.00 82 1025.7
20260506130032 57 123 0.0 3.0 0.00 0.00 0.00 82 1025.7
20260506124515 57 123 0.0 2.0 0.00 0.00 0.00 82 1025.6
20260506123014 57 123 0.0 0.0 0.00 0.00 0.00 82 1025.5
20260506121513 57 123 0.0 2.0 0.00 0.00 0.00 82 1025.4
20260506120017 57 123 0.0 0.0 0.00 0.00 0.00 83 1025.3
20260506114511 57 123 0.0 0.0 0.00 0.00 0.00 83 1025.3
20260506113009 57 123 0.0 0.0 0.00 0.00 0.00 82 1025.2
20260506111507 57 123 0.0 3.0 0.00 0.00 0.00 82 1025.0
20260506110006 57 123 0.0 0.0 0.00 0.00 0.00 82 1024.9
20260506104504 57 123 0.0 1.0 0.00 0.00 0.00 81 1024.8
20260506103002 57 123 0.0 4.0 0.00 0.00 0.00 81 1024.6
20260506101504 58 123 0.0 0.0 0.00 0.00 0.00 81 1024.5
20260506100001 58 123 0.0 0.0 0.00 0.00 0.00 80 1024.5
20260506094623 58 123 0.0 0.0 0.00 0.00 0.00 80 1024.5
20260506093059 58 123 0.0 0.0 0.00 0.00 0.00 80 1024.5
20260506091558 58 123 0.0 1.0 0.00 0.00 0.00 80 1024.5
20260506090057 58 123 0.0 2.0 0.00 0.00 0.00 80 1024.5
20260506084557 58 123 0.0 3.0 0.00 0.00 0.00 79 1024.5
20260506083100 58 123 0.0 0.0 0.00 0.00 0.00 79 1024.5
20260506081557 58 123 0.0 0.0 0.00 0.00 0.00 78 1024.5
20260506073049 59 123 0.0 0.0 0.00 0.02 0.00 77 1024.2
20260506071549 59 123 0.0 0.0 0.00 0.02 0.00 77 1024.1
20260506061545 59 122 0.0 3.0 0.00 0.10 0.02 77 1023.6
20260506044533 60 120 1.0 4.0 0.00 0.33 0.02 78 1022.7
20260506043030 61 120 0.0 3.0 0.00 0.33 0.02 77 1022.5
20260506041532 61 120 0.0 4.0 0.00 0.33 0.02 77 1022.3
20260506040029 61 120 0.0 3.0 0.00 0.33 0.02 77 1022.4
20260506034529 61 120 1.0 8.0 0.00 0.45 0.02 76 1022.3
20260506033026 62 117 0.0 4.0 0.00 0.45 0.02 75 1022.1
20260506031525 62 117 0.0 4.0 0.00 0.45 0.02 75 1021.8
20260506030030 63 117 0.0 6.0 0.00 0.45 0.02 74 1021.5
20260506024540 63 117 1.0 8.0 0.00 0.50 0.02 73 1021.4
20260506023023 64 115 0.0 6.0 0.00 0.50 0.02 72 1021.2
20260506021523 64 115 0.0 4.0 0.00 0.50 0.02 72 1021.1
20260506020022 65 115 0.0 7.0 0.00 0.50 0.02 71 1021.1
20260506014524 65 114 1.0 7.0 0.00 0.53 0.02 70 1020.9
20260506013021 65 112 2.0 7.0 0.00 0.53 0.02 69 1020.9
20260506011520 66 108 1.0 6.0 0.00 0.53 0.02 68 1020.8
20260506010021 65 108 2.0 7.0 0.00 0.53 0.02 67 1020.7
20260506004520 66 108 1.0 7.0 0.00 0.56 0.02 67 1020.7